Time,TemperatureF,DewpointF,PressureIn,WindDirection,WindDirectionDegrees,WindSpeedMPH,WindSpeedGustMPH,Humidity,HourlyPrecipIn,Conditions,Clouds,dailyrainin,SoftwareType,DateUTC
2013-05-17 00:02:00,64.7,43.4,29.84,WSW,255,0.0,0.0,46,0.00,,,0.00,Wunderground v.1.15,2013-05-17 04:02:00,
2013-05-17 00:06:00,64.4,43.7,29.84,WSW,256,0.0,2.0,47,0.00,,,0.00,Wunderground v.1.15,2013-05-17 04:06:00,
2013-05-17 00:12:00,63.9,43.8,29.84,SW,236,0.0,1.0,48,0.00,,,0.00,Wunderground v.1.15,2013-05-17 04:12:00,
2013-05-17 00:14:00,63.7,43.6,29.85,SW,236,0.0,1.0,48,0.00,,,0.00,Wunderground v.1.15,2013-05-17 04:14:00,
2013-05-17 00:20:00,63.3,43.8,29.85,WSW,238,0.0,1.0,49,0.00,,,0.00,Wunderground v.1.15,2013-05-17 04:20:00,
2013-05-17 00:24:00,62.9,44.0,29.85,WSW,238,0.0,1.0,50,0.00,,,0.00,Wunderground v.1.15,2013-05-17 04:24:00,
2013-05-17 00:30:00,62.5,43.6,29.85,SW,226,0.0,3.0,50,0.00,,,0.00,Wunderground v.1.15,2013-05-17 04:30:00,
2013-05-17 00:36:00,62.1,43.7,29.85,SSE,156,0.0,3.0,51,0.00,,,0.00,Wunderground v.1.15,2013-05-17 04:36:00,
2013-05-17 00:42:00,61.7,43.4,29.86,SW,214,0.0,1.0,51,0.00,,,0.00,Wunderground v.1.15,2013-05-17 04:42:00,
2013-05-17 00:48:00,61.3,43.5,29.86,SSE,166,0.0,1.0,52,0.00,,,0.00,Wunderground v.1.15,2013-05-17 04:48:00,
2013-05-17 00:54:00,61.0,43.2,29.86,SSE,165,0.0,0.0,52,0.00,,,0.00,Wunderground v.1.15,2013-05-17 04:54:00,
2013-05-17 01:00:00,60.7,43.0,29.86,SSE,165,0.0,0.0,52,0.00,,,0.00,Wunderground v.1.15,2013-05-17 05:00:00,
2013-05-17 01:08:00,60.3,43.1,29.87,South,182,0.0,0.0,53,0.00,,,0.00,Wunderground v.1.15,2013-05-17 05:08:00,
2013-05-17 01:14:00,60.0,42.8,29.87,South,183,0.0,0.0,53,0.00,,,0.00,Wunderground v.1.15,2013-05-17 05:14:00,
2013-05-17 01:20:00,59.8,43.1,29.87,South,184,0.0,0.0,54,0.00,,,0.00,Wunderground v.1.15,2013-05-17 05:20:00,
2013-05-17 01:26:00,59.5,43.3,29.87,South,184,0.0,0.0,55,0.00,,,0.00,Wunderground v.1.15,2013-05-17 05:26:00,
2013-05-17 01:32:00,59.0,43.3,29.87,South,184,0.0,0.0,56,0.00,,,0.00,Wunderground v.1.15,2013-05-17 05:32:00,
2013-05-17 01:38:00,59.0,43.3,29.87,South,184,0.0,0.0,56,0.00,,,0.00,Wunderground v.1.15,2013-05-17 05:38:00,
2013-05-17 01:44:00,58.7,43.5,29.87,South,183,0.0,0.0,57,0.00,,,0.00,Wunderground v.1.15,2013-05-17 05:44:00,
2013-05-17 01:50:00,58.3,43.1,29.87,South,184,0.0,0.0,57,0.00,,,0.00,Wunderground v.1.15,2013-05-17 05:50:00,
2013-05-17 01:56:00,58.0,43.3,29.86,South,183,0.0,0.0,58,0.00,,,0.00,Wunderground v.1.15,2013-05-17 05:56:00,
2013-05-17 02:02:00,57.6,43.4,29.87,South,184,0.0,0.0,59,0.00,,,0.00,Wunderground v.1.15,2013-05-17 06:02:00,
2013-05-17 02:08:00,57.1,43.3,29.87,South,183,0.0,0.0,60,0.00,,,0.00,Wunderground v.1.15,2013-05-17 06:08:00,
2013-05-17 02:14:00,56.5,43.2,29.87,South,184,0.0,0.0,61,0.00,,,0.00,Wunderground v.1.15,2013-05-17 06:14:00,
2013-05-17 02:20:00,56.0,43.2,29.87,South,183,0.0,0.0,62,0.00,,,0.00,Wunderground v.1.15,2013-05-17 06:20:00,
2013-05-17 02:26:00,55.6,43.2,29.87,South,184,0.0,0.0,63,0.00,,,0.00,Wunderground v.1.15,2013-05-17 06:26:00,
2013-05-17 02:32:00,55.2,43.6,29.88,South,183,0.0,0.0,65,0.00,,,0.00,Wunderground v.1.15,2013-05-17 06:32:00,
2013-05-17 02:38:00,54.9,43.4,29.88,South,183,0.0,0.0,65,0.00,,,0.00,Wunderground v.1.15,2013-05-17 06:38:00,
2013-05-17 02:44:00,54.7,43.2,29.88,South,183,0.0,0.0,65,0.00,,,0.00,Wunderground v.1.15,2013-05-17 06:44:00,
2013-05-17 02:50:00,54.5,43.4,29.88,South,184,0.0,0.0,66,0.00,,,0.00,Wunderground v.1.15,2013-05-17 06:50:00,
2013-05-17 02:56:00,54.2,43.5,29.88,South,184,0.0,0.0,67,0.00,,,0.00,Wunderground v.1.15,2013-05-17 06:56:00,
2013-05-17 03:02:00,53.9,43.6,29.88,South,183,0.0,0.0,68,0.00,,,0.00,Wunderground v.1.15,2013-05-17 07:02:00,
2013-05-17 03:08:00,53.8,43.5,29.88,South,184,0.0,0.0,68,0.00,,,0.00,Wunderground v.1.15,2013-05-17 07:08:00,
2013-05-17 03:14:00,53.7,43.4,29.88,South,183,0.0,0.0,68,0.00,,,0.00,Wunderground v.1.15,2013-05-17 07:14:00,
2013-05-17 03:20:00,53.7,43.4,29.88,South,184,0.0,0.0,68,0.00,,,0.00,Wunderground v.1.15,2013-05-17 07:20:00,
2013-05-17 03:26:00,53.7,43.4,29.88,South,184,0.0,0.0,68,0.00,,,0.00,Wunderground v.1.15,2013-05-17 07:26:00,
2013-05-17 03:32:00,53.7,43.4,29.89,South,183,0.0,0.0,68,0.00,,,0.00,Wunderground v.1.15,2013-05-17 07:32:00,
2013-05-17 03:38:00,53.7,43.4,29.88,South,184,0.0,0.0,68,0.00,,,0.00,Wunderground v.1.15,2013-05-17 07:38:00,
2013-05-17 03:44:00,53.5,43.2,29.89,South,183,0.0,0.0,68,0.00,,,0.00,Wunderground v.1.15,2013-05-17 07:44:00,
2013-05-17 03:50:00,53.4,43.1,29.89,South,184,0.0,0.0,68,0.00,,,0.00,Wunderground v.1.15,2013-05-17 07:50:00,
2013-05-17 03:56:00,53.3,43.4,29.89,South,184,0.0,0.0,69,0.00,,,0.00,Wunderground v.1.15,2013-05-17 07:56:00,
2013-05-17 04:02:00,53.3,43.0,29.89,South,184,0.0,0.0,68,0.00,,,0.00,Wunderground v.1.15,2013-05-17 08:02:00,
2013-05-17 04:08:00,53.4,43.1,29.90,South,184,0.0,0.0,68,0.00,,,0.00,Wunderground v.1.15,2013-05-17 08:08:00,
2013-05-17 04:14:00,53.5,43.2,29.90,South,184,0.0,0.0,68,0.00,,,0.00,Wunderground v.1.15,2013-05-17 08:14:00,
2013-05-17 04:20:00,53.5,43.2,29.91,South,184,0.0,0.0,68,0.00,,,0.00,Wunderground v.1.15,2013-05-17 08:20:00,
2013-05-17 04:26:00,53.5,42.4,29.91,South,183,0.0,0.0,66,0.00,,,0.00,Wunderground v.1.15,2013-05-17 08:26:00,
2013-05-17 04:32:00,53.7,42.6,29.91,South,184,0.0,0.0,66,0.00,,,0.00,Wunderground v.1.15,2013-05-17 08:32:00,
2013-05-17 04:38:00,53.8,42.3,29.91,South,183,0.0,0.0,65,0.00,,,0.00,Wunderground v.1.15,2013-05-17 08:38:00,
2013-05-17 04:44:00,54.0,42.1,29.92,South,184,0.0,0.0,64,0.00,,,0.00,Wunderground v.1.15,2013-05-17 08:44:00,
2013-05-17 04:50:00,54.1,42.2,29.92,South,183,0.0,0.0,64,0.00,,,0.00,Wunderground v.1.15,2013-05-17 08:50:00,
2013-05-17 04:56:00,54.1,41.8,29.92,South,184,0.0,0.0,63,0.00,,,0.00,Wunderground v.1.15,2013-05-17 08:56:00,
2013-05-17 05:02:00,54.0,42.1,29.92,South,183,0.0,0.0,64,0.00,,,0.00,Wunderground v.1.15,2013-05-17 09:02:00,
2013-05-17 05:08:00,53.8,41.9,29.92,South,184,0.0,0.0,64,0.00,,,0.00,Wunderground v.1.15,2013-05-17 09:08:00,
2013-05-17 05:14:00,53.7,41.8,29.92,South,184,0.0,0.0,64,0.00,,,0.00,Wunderground v.1.15,2013-05-17 09:14:00,
2013-05-17 05:20:00,53.6,41.7,29.93,South,184,0.0,0.0,64,0.00,,,0.00,Wunderground v.1.15,2013-05-17 09:20:00,
2013-05-17 05:26:00,53.4,41.9,29.94,South,184,0.0,0.0,65,0.00,,,0.00,Wunderground v.1.15,2013-05-17 09:26:00,
2013-05-17 05:32:00,53.3,41.8,29.94,South,183,0.0,0.0,65,0.00,,,0.00,Wunderground v.1.15,2013-05-17 09:32:00,
2013-05-17 05:38:00,53.1,42.0,29.94,South,184,0.0,0.0,66,0.00,,,0.00,Wunderground v.1.15,2013-05-17 09:38:00,
2013-05-17 05:44:00,53.0,41.5,29.94,South,183,0.0,0.0,65,0.00,,,0.00,Wunderground v.1.15,2013-05-17 09:44:00,
2013-05-17 05:50:00,52.9,41.4,29.94,South,184,0.0,0.0,65,0.00,,,0.00,Wunderground v.1.15,2013-05-17 09:50:00,
2013-05-17 05:56:00,52.9,41.8,29.95,South,183,0.0,0.0,66,0.00,,,0.00,Wunderground v.1.15,2013-05-17 09:56:00,
2013-05-17 06:02:00,53.0,41.9,29.95,South,184,0.0,0.0,66,0.00,,,0.00,Wunderground v.1.15,2013-05-17 10:02:00,
2013-05-17 06:08:00,52.9,41.8,29.96,South,184,0.0,0.0,66,0.00,,,0.00,Wunderground v.1.15,2013-05-17 10:08:00,
2013-05-17 06:14:00,53.0,41.9,29.97,South,184,0.0,0.0,66,0.00,,,0.00,Wunderground v.1.15,2013-05-17 10:14:00,
2013-05-17 06:20:00,53.0,42.3,29.97,South,184,0.0,0.0,67,0.00,,,0.00,Wunderground v.1.15,2013-05-17 10:20:00,
2013-05-17 06:26:00,53.1,42.0,29.97,South,183,0.0,0.0,66,0.00,,,0.00,Wunderground v.1.15,2013-05-17 10:26:00,
2013-05-17 06:32:00,53.0,41.9,29.97,South,184,0.0,0.0,66,0.00,,,0.00,Wunderground v.1.15,2013-05-17 10:32:00,
2013-05-17 06:38:00,53.2,42.1,29.98,South,184,0.0,0.0,66,0.00,,,0.00,Wunderground v.1.15,2013-05-17 10:38:00,
2013-05-17 06:44:00,53.3,41.8,29.98,WNW,286,0.0,0.0,65,0.00,,,0.00,Wunderground v.1.15,2013-05-17 10:44:00,
2013-05-17 06:50:00,53.5,42.0,29.98,West,266,0.0,0.0,65,0.00,,,0.00,Wunderground v.1.15,2013-05-17 10:50:00,
2013-05-17 06:56:00,53.7,42.2,29.99,West,266,0.0,0.0,65,0.00,,,0.00,Wunderground v.1.15,2013-05-17 10:56:00,
2013-05-17 07:02:00,53.8,41.5,29.99,WNW,294,0.0,3.0,63,0.00,,,0.00,Wunderground v.1.15,2013-05-17 11:02:00,
2013-05-17 07:08:00,53.8,41.5,30.00,WNW,294,1.0,3.0,63,0.00,,,0.00,Wunderground v.1.15,2013-05-17 11:08:00,
2013-05-17 07:14:00,53.9,41.2,29.99,WNW,285,0.0,0.0,62,0.00,,,0.00,Wunderground v.1.15,2013-05-17 11:14:00,
2013-05-17 07:20:00,54.0,41.3,30.00,WNW,284,0.0,2.0,62,0.00,,,0.00,Wunderground v.1.15,2013-05-17 11:20:00,
2013-05-17 07:26:00,54.2,41.5,30.00,SE,137,0.0,2.0,62,0.00,,,0.00,Wunderground v.1.15,2013-05-17 11:26:00,
2013-05-17 07:32:00,54.3,41.6,30.00,WNW,294,1.0,1.0,62,0.00,,,0.00,Wunderground v.1.15,2013-05-17 11:32:00,
2013-05-17 07:38:00,54.5,40.9,30.00,SSW,192,1.0,2.0,60,0.00,,,0.00,Wunderground v.1.15,2013-05-17 11:38:00,
2013-05-17 07:44:00,54.6,40.6,30.01,ENE,69,1.0,2.0,59,0.00,,,0.00,Wunderground v.1.15,2013-05-17 11:44:00,
2013-05-17 07:50:00,54.9,40.8,30.01,WNW,288,1.0,2.0,59,0.00,,,0.00,Wunderground v.1.15,2013-05-17 11:50:00,
2013-05-17 07:56:00,55.1,41.0,30.02,WNW,284,0.0,2.0,59,0.00,,,0.00,Wunderground v.1.15,2013-05-17 11:56:00,
2013-05-17 08:02:00,55.4,41.3,30.02,West,280,0.0,0.0,59,0.00,,,0.00,Wunderground v.1.15,2013-05-17 12:02:00,
2013-05-17 08:08:00,55.8,41.2,30.01,West,273,0.0,0.0,58,0.00,,,0.00,Wunderground v.1.15,2013-05-17 12:08:00,
2013-05-17 08:14:00,56.4,41.8,30.02,West,272,0.0,1.0,58,0.00,,,0.00,Wunderground v.1.15,2013-05-17 12:14:00,
2013-05-17 08:20:00,56.6,41.5,30.01,WNW,284,0.0,1.0,57,0.00,,,0.00,Wunderground v.1.15,2013-05-17 12:20:00,
2013-05-17 08:26:00,56.9,41.8,30.01,West,281,0.0,1.0,57,0.00,,,0.00,Wunderground v.1.15,2013-05-17 12:26:00,
2013-05-17 08:32:00,57.3,41.7,30.02,West,279,0.0,1.0,56,0.00,,,0.00,Wunderground v.1.15,2013-05-17 12:32:00,
2013-05-17 08:38:00,57.2,40.7,30.02,WNW,286,0.0,3.0,54,0.00,,,0.00,Wunderground v.1.15,2013-05-17 12:38:00,
2013-05-17 08:44:00,57.0,41.4,30.02,WNW,286,1.0,1.0,56,0.00,,,0.00,Wunderground v.1.15,2013-05-17 12:44:00,
2013-05-17 08:50:00,56.9,41.4,30.03,WNW,286,0.0,0.0,56,0.00,,,0.00,Wunderground v.1.15,2013-05-17 12:50:00,
2013-05-17 08:56:00,57.5,41.9,30.03,West,269,0.0,0.0,56,0.00,,,0.00,Wunderground v.1.15,2013-05-17 12:56:00,
2013-05-17 09:02:00,58.2,41.6,30.03,WNW,286,0.0,0.0,54,0.00,,,0.00,Wunderground v.1.15,2013-05-17 13:02:00,
2013-05-17 09:08:00,59.0,41.9,30.03,West,271,0.0,2.0,53,0.00,,,0.00,Wunderground v.1.15,2013-05-17 13:08:00,
2013-05-17 09:14:00,59.6,42.4,30.02,West,268,0.0,0.0,53,0.00,,,0.00,Wunderground v.1.15,2013-05-17 13:14:00,
2013-05-17 09:20:00,60.3,42.6,30.02,ESE,109,0.0,0.0,52,0.00,,,0.00,Wunderground v.1.15,2013-05-17 13:20:00,
2013-05-17 09:26:00,61.0,43.2,30.02,SSE,156,0.0,0.0,52,0.00,,,0.00,Wunderground v.1.15,2013-05-17 13:26:00,
2013-05-17 09:32:00,61.1,42.3,30.02,WNW,300,0.0,0.0,50,0.00,,,0.00,Wunderground v.1.15,2013-05-17 13:32:00,
2013-05-17 09:38:00,61.0,42.7,30.02,WNW,291,1.0,3.0,51,0.00,,,0.00,Wunderground v.1.15,2013-05-17 13:38:00,
2013-05-17 09:44:00,61.1,42.8,30.02,WNW,298,1.0,3.0,51,0.00,,,0.00,Wunderground v.1.15,2013-05-17 13:44:00,
2013-05-17 09:50:00,61.1,41.8,30.02,West,268,2.0,2.0,49,0.00,,,0.00,Wunderground v.1.15,2013-05-17 13:50:00,
2013-05-17 09:56:00,61.0,42.2,30.02,West,279,1.0,2.0,50,0.00,,,0.00,Wunderground v.1.15,2013-05-17 13:56:00,
2013-05-17 10:02:00,61.5,42.2,30.02,West,276,1.0,1.0,49,0.00,,,0.00,Wunderground v.1.15,2013-05-17 14:02:00,
2013-05-17 10:08:00,62.5,43.1,30.02,SE,127,0.0,2.0,49,0.00,,,0.00,Wunderground v.1.15,2013-05-17 14:08:00,
2013-05-17 10:14:00,62.6,42.6,30.02,West,281,1.0,5.0,48,0.00,,,0.00,Wunderground v.1.15,2013-05-17 14:14:00,
2013-05-17 10:20:00,61.9,43.0,30.03,WNW,293,2.0,5.0,50,0.00,,,0.00,Wunderground v.1.15,2013-05-17 14:20:00,
2013-05-17 10:26:00,62.5,43.1,30.03,West,280,1.0,5.0,49,0.00,,,0.00,Wunderground v.1.15,2013-05-17 14:26:00,
2013-05-17 10:32:00,62.7,42.7,30.03,West,272,1.0,1.0,48,0.00,,,0.00,Wunderground v.1.15,2013-05-17 14:32:00,
2013-05-17 10:38:00,62.2,42.3,30.04,WNW,296,1.0,3.0,48,0.00,,,0.00,Wunderground v.1.15,2013-05-17 14:38:00,
2013-05-17 10:44:00,62.9,43.4,30.04,WNW,288,1.0,1.0,49,0.00,,,0.00,Wunderground v.1.15,2013-05-17 14:44:00,
2013-05-17 10:50:00,63.4,43.4,30.05,WNW,290,0.0,1.0,48,0.00,,,0.00,Wunderground v.1.15,2013-05-17 14:50:00,
2013-05-17 10:56:00,63.8,43.2,30.04,WNW,294,0.0,1.0,47,0.00,,,0.00,Wunderground v.1.15,2013-05-17 14:56:00,
2013-05-17 11:02:00,64.5,43.8,30.05,West,275,1.0,1.0,47,0.00,,,0.00,Wunderground v.1.15,2013-05-17 15:02:00,
2013-05-17 11:08:00,64.9,43.6,30.05,WNW,296,1.0,1.0,46,0.00,,,0.00,Wunderground v.1.15,2013-05-17 15:08:00,
2013-05-17 11:14:00,65.8,43.9,30.05,West,271,0.0,2.0,45,0.00,,,0.00,Wunderground v.1.15,2013-05-17 15:14:00,
2013-05-17 11:20:00,65.7,44.3,30.05,WNW,286,0.0,0.0,46,0.00,,,0.00,Wunderground v.1.15,2013-05-17 15:20:00,
2013-05-17 11:26:00,66.1,44.1,30.05,WNW,286,0.0,0.0,45,0.00,,,0.00,Wunderground v.1.15,2013-05-17 15:26:00,
2013-05-17 11:32:00,65.7,44.3,30.05,WNW,286,0.0,1.0,46,0.00,,,0.00,Wunderground v.1.15,2013-05-17 15:32:00,
2013-05-17 11:38:00,65.6,43.7,30.05,WNW,294,1.0,1.0,45,0.00,,,0.00,Wunderground v.1.15,2013-05-17 15:38:00,
2013-05-17 11:44:00,65.8,43.9,30.05,West,277,1.0,5.0,45,0.00,,,0.00,Wunderground v.1.15,2013-05-17 15:44:00,
2013-05-17 11:50:00,65.1,43.2,30.05,WNW,299,1.0,1.0,45,0.00,,,0.00,Wunderground v.1.15,2013-05-17 15:50:00,
2013-05-17 11:56:00,64.7,43.4,30.06,West,260,1.0,2.0,46,0.00,,,0.00,Wunderground v.1.15,2013-05-17 15:56:00,
2013-05-17 12:02:00,64.5,43.3,30.06,West,281,0.0,1.0,46,0.00,,,0.00,Wunderground v.1.15,2013-05-17 16:02:00,
2013-05-17 12:08:00,64.6,43.3,30.06,WNW,298,1.0,1.0,46,0.00,,,0.00,Wunderground v.1.15,2013-05-17 16:08:00,
2013-05-17 12:14:00,64.7,44.5,30.06,SW,236,1.0,1.0,48,0.00,,,0.00,Wunderground v.1.15,2013-05-17 16:14:00,
2013-05-17 12:20:00,64.7,44.0,30.06,WNW,288,0.0,0.0,47,0.00,,,0.00,Wunderground v.1.15,2013-05-17 16:20:00,
2013-05-17 12:26:00,65.2,44.5,30.06,West,280,1.0,2.0,47,0.00,,,0.00,Wunderground v.1.15,2013-05-17 16:26:00,
2013-05-17 12:32:00,64.8,43.5,30.06,WNW,292,1.0,3.0,46,0.00,,,0.00,Wunderground v.1.15,2013-05-17 16:32:00,
2013-05-17 12:38:00,65.5,43.6,30.06,WNW,293,1.0,3.0,45,0.00,,,0.00,Wunderground v.1.15,2013-05-17 16:38:00,
2013-05-17 12:44:00,65.6,43.1,30.06,WSW,249,1.0,1.0,44,0.00,,,0.00,Wunderground v.1.15,2013-05-17 16:44:00,
2013-05-17 12:50:00,65.8,43.3,30.06,West,273,1.0,1.0,44,0.00,,,0.00,Wunderground v.1.15,2013-05-17 16:50:00,
2013-05-17 12:56:00,66.3,44.3,30.06,West,277,1.0,1.0,45,0.00,,,0.00,Wunderground v.1.15,2013-05-17 16:56:00,
2013-05-17 13:02:00,66.2,43.0,30.07,NW,305,1.0,2.0,43,0.00,,,0.00,Wunderground v.1.15,2013-05-17 17:02:00,
2013-05-17 13:08:00,65.9,43.4,30.06,WNW,290,1.0,2.0,44,0.00,,,0.00,Wunderground v.1.15,2013-05-17 17:08:00,
2013-05-17 13:14:00,66.6,43.4,30.07,WNW,292,1.0,2.0,43,0.00,,,0.00,Wunderground v.1.15,2013-05-17 17:14:00,
2013-05-17 13:20:00,66.0,43.5,30.07,WNW,296,1.0,2.0,44,0.00,,,0.00,Wunderground v.1.15,2013-05-17 17:20:00,
2013-05-17 13:26:00,66.3,43.7,30.06,NNW,333,1.0,4.0,44,0.00,,,0.00,Wunderground v.1.15,2013-05-17 17:26:00,
2013-05-17 13:32:00,67.3,43.4,30.07,WNW,290,0.0,1.0,42,0.00,,,0.00,Wunderground v.1.15,2013-05-17 17:32:00,
2013-05-17 13:38:00,67.2,43.3,30.06,West,279,1.0,1.0,42,0.00,,,0.00,Wunderground v.1.15,2013-05-17 17:38:00,
2013-05-17 13:44:00,68.0,44.7,30.06,NW,324,1.0,1.0,43,0.00,,,0.00,Wunderground v.1.15,2013-05-17 17:44:00,
2013-05-17 13:50:00,68.7,44.7,30.07,SW,233,0.0,0.0,42,0.00,,,0.00,Wunderground v.1.15,2013-05-17 17:50:00,
2013-05-17 13:56:00,67.8,43.2,30.06,WNW,289,1.0,1.0,41,0.00,,,0.00,Wunderground v.1.15,2013-05-17 17:56:00,
2013-05-17 14:02:00,67.2,43.3,30.07,NW,308,1.0,3.0,42,0.00,,,0.00,Wunderground v.1.15,2013-05-17 18:02:00,
2013-05-17 14:08:00,67.3,43.4,30.07,West,279,1.0,3.0,42,0.00,,,0.00,Wunderground v.1.15,2013-05-17 18:08:00,
2013-05-17 14:14:00,67.7,43.8,30.07,West,269,1.0,1.0,42,0.00,,,0.00,Wunderground v.1.15,2013-05-17 18:14:00,
2013-05-17 14:20:00,68.4,43.1,30.07,WNW,288,0.0,0.0,40,0.00,,,0.00,Wunderground v.1.15,2013-05-17 18:20:00,
2013-05-17 14:26:00,68.3,44.3,30.07,WNW,294,1.0,1.0,42,0.00,,,0.00,Wunderground v.1.15,2013-05-17 18:26:00,
2013-05-17 14:32:00,67.6,44.3,30.07,WSW,257,1.0,2.0,43,0.00,,,0.00,Wunderground v.1.15,2013-05-17 18:32:00,
2013-05-17 14:38:00,67.7,42.5,30.08,WNW,286,0.0,3.0,40,0.00,,,0.00,Wunderground v.1.15,2013-05-17 18:38:00,
2013-05-17 14:44:00,68.1,43.5,30.08,WNW,283,1.0,3.0,41,0.00,,,0.00,Wunderground v.1.15,2013-05-17 18:44:00,
2013-05-17 14:50:00,68.6,43.3,30.08,West,279,0.0,0.0,40,0.00,,,0.00,Wunderground v.1.15,2013-05-17 18:50:00,
2013-05-17 14:56:00,68.8,42.8,30.08,West,280,1.0,1.0,39,0.00,,,0.00,Wunderground v.1.15,2013-05-17 18:56:00,
2013-05-17 15:02:00,69.4,43.4,30.08,NNW,331,0.0,1.0,39,0.00,,,0.00,Wunderground v.1.15,2013-05-17 19:02:00,
2013-05-17 15:08:00,69.4,44.0,30.08,West,268,1.0,1.0,40,0.00,,,0.00,Wunderground v.1.15,2013-05-17 19:08:00,
2013-05-17 15:14:00,70.2,44.7,30.08,WNW,288,0.0,0.0,40,0.00,,,0.00,Wunderground v.1.15,2013-05-17 19:14:00,
2013-05-17 15:20:00,70.1,43.3,30.08,WNW,293,1.0,1.0,38,0.00,,,0.00,Wunderground v.1.15,2013-05-17 19:20:00,
2013-05-17 15:26:00,70.1,44.0,30.07,WNW,290,1.0,1.0,39,0.00,,,0.00,Wunderground v.1.15,2013-05-17 19:26:00,
2013-05-17 15:32:00,69.8,42.3,30.07,WNW,290,1.0,1.0,37,0.00,,,0.00,Wunderground v.1.15,2013-05-17 19:32:00,
2013-05-17 15:38:00,69.5,42.8,30.08,West,278,1.0,1.0,38,0.00,,,0.00,Wunderground v.1.15,2013-05-17 19:38:00,
2013-05-17 15:44:00,69.4,42.7,30.07,SSE,152,0.0,0.0,38,0.00,,,0.00,Wunderground v.1.15,2013-05-17 19:44:00,
2013-05-17 15:50:00,69.1,42.4,30.08,WNW,298,1.0,1.0,38,0.00,,,0.00,Wunderground v.1.15,2013-05-17 19:50:00,
2013-05-17 15:56:00,69.1,42.4,30.08,WNW,287,1.0,2.0,38,0.00,,,0.00,Wunderground v.1.15,2013-05-17 19:56:00,
2013-05-17 16:02:00,68.6,41.3,30.08,WNW,292,1.0,1.0,37,0.00,,,0.00,Wunderground v.1.15,2013-05-17 20:02:00,
2013-05-17 16:08:00,68.5,42.6,30.08,WNW,286,1.0,1.0,39,0.00,,,0.00,Wunderground v.1.15,2013-05-17 20:08:00,
2013-05-17 16:14:00,69.0,42.3,30.08,West,269,0.0,1.0,38,0.00,,,0.00,Wunderground v.1.15,2013-05-17 20:14:00,
2013-05-17 16:20:00,69.4,42.0,30.08,WNW,285,0.0,0.0,37,0.00,,,0.00,Wunderground v.1.15,2013-05-17 20:20:00,
2013-05-17 16:26:00,68.9,41.5,30.08,WNW,300,1.0,2.0,37,0.00,,,0.00,Wunderground v.1.15,2013-05-17 20:26:00,
2013-05-17 16:32:00,68.7,42.7,30.08,WNW,301,0.0,1.0,39,0.00,,,0.00,Wunderground v.1.15,2013-05-17 20:32:00,
2013-05-17 16:38:00,69.0,40.9,30.08,WNW,300,0.0,1.0,36,0.00,,,0.00,Wunderground v.1.15,2013-05-17 20:38:00,
2013-05-17 16:44:00,69.4,40.5,30.08,WNW,301,0.0,0.0,35,0.00,,,0.00,Wunderground v.1.15,2013-05-17 20:44:00,
2013-05-17 16:50:00,69.7,42.3,30.09,WNW,300,0.0,0.0,37,0.00,,,0.00,Wunderground v.1.15,2013-05-17 20:50:00,
2013-05-17 16:56:00,70.0,41.8,30.09,WNW,291,0.0,0.0,36,0.00,,,0.00,Wunderground v.1.15,2013-05-17 20:56:00,
2013-05-17 17:02:00,70.1,41.9,30.09,WNW,291,0.0,0.0,36,0.00,,,0.00,Wunderground v.1.15,2013-05-17 21:02:00,
2013-05-17 17:08:00,70.1,41.9,30.09,WNW,292,0.0,0.0,36,0.00,,,0.00,Wunderground v.1.15,2013-05-17 21:08:00,
2013-05-17 17:14:00,70.0,40.3,30.09,SSE,148,0.0,0.0,34,0.00,,,0.00,Wunderground v.1.15,2013-05-17 21:14:00,
2013-05-17 17:20:00,69.9,40.2,30.10,SW,223,0.0,0.0,34,0.00,,,0.00,Wunderground v.1.15,2013-05-17 21:20:00,
2013-05-17 17:26:00,69.2,40.4,30.10,West,260,0.0,0.0,35,0.00,,,0.00,Wunderground v.1.15,2013-05-17 21:26:00,
2013-05-17 17:32:00,68.6,40.6,30.11,West,260,0.0,0.0,36,0.00,,,0.00,Wunderground v.1.15,2013-05-17 21:32:00,
2013-05-17 17:38:00,68.4,40.4,30.11,West,259,0.0,0.0,36,0.00,,,0.00,Wunderground v.1.15,2013-05-17 21:38:00,
2013-05-17 17:44:00,68.5,41.9,30.11,West,261,0.0,0.0,38,0.00,,,0.00,Wunderground v.1.15,2013-05-17 21:44:00,
2013-05-17 17:50:00,68.6,41.3,30.11,West,262,0.0,0.0,37,0.00,,,0.00,Wunderground v.1.15,2013-05-17 21:50:00,
2013-05-17 17:56:00,68.7,40.7,30.11,SSW,205,0.0,0.0,36,0.00,,,0.00,Wunderground v.1.15,2013-05-17 21:56:00,
2013-05-17 18:02:00,68.4,40.4,30.11,WSW,244,0.0,0.0,36,0.00,,,0.00,Wunderground v.1.15,2013-05-17 22:02:00,
2013-05-17 18:08:00,68.3,40.3,30.11,SW,234,0.0,0.0,36,0.00,,,0.00,Wunderground v.1.15,2013-05-17 22:08:00,
2013-05-17 18:14:00,68.3,41.0,30.12,SW,236,0.0,0.0,37,0.00,,,0.00,Wunderground v.1.15,2013-05-17 22:14:00,
2013-05-17 18:20:00,68.4,40.4,30.12,SSE,164,0.0,0.0,36,0.00,,,0.00,Wunderground v.1.15,2013-05-17 22:20:00,
2013-05-17 18:26:00,68.5,40.5,30.12,SSE,164,0.0,0.0,36,0.00,,,0.00,Wunderground v.1.15,2013-05-17 22:26:00,
2013-05-17 18:32:00,68.4,40.4,30.13,SSE,165,0.0,0.0,36,0.00,,,0.00,Wunderground v.1.15,2013-05-17 22:32:00,
2013-05-17 18:38:00,68.3,40.3,30.13,SSE,165,0.0,0.0,36,0.00,,,0.00,Wunderground v.1.15,2013-05-17 22:38:00,
2013-05-17 18:44:00,68.1,40.1,30.13,SSE,164,0.0,0.0,36,0.00,,,0.00,Wunderground v.1.15,2013-05-17 22:44:00,
2013-05-17 18:50:00,67.9,40.7,30.13,SSE,165,0.0,0.0,37,0.00,,,0.00,Wunderground v.1.15,2013-05-17 22:50:00,
2013-05-17 18:56:00,67.7,39.8,30.13,SSE,164,0.0,0.0,36,0.00,,,0.00,Wunderground v.1.15,2013-05-17 22:56:00,
2013-05-17 19:02:00,67.5,39.6,30.13,SSE,165,0.0,0.0,36,0.00,,,0.00,Wunderground v.1.15,2013-05-17 23:02:00,
2013-05-17 19:08:00,67.3,40.1,30.14,SSE,161,0.0,0.0,37,0.00,,,0.00,Wunderground v.1.15,2013-05-17 23:08:00,
2013-05-17 19:14:00,67.0,40.5,30.14,SSE,162,0.0,0.0,38,0.00,,,0.00,Wunderground v.1.15,2013-05-17 23:14:00,
2013-05-17 19:20:00,66.7,38.9,30.15,SSE,161,0.0,0.0,36,0.00,,,0.00,Wunderground v.1.15,2013-05-17 23:20:00,
2013-05-17 19:26:00,66.5,40.1,30.15,SSE,162,0.0,0.0,38,0.00,,,0.00,Wunderground v.1.15,2013-05-17 23:26:00,
2013-05-17 19:32:00,66.2,39.8,30.15,SSE,164,0.0,0.0,38,0.00,,,0.00,Wunderground v.1.15,2013-05-17 23:32:00,
2013-05-17 19:38:00,66.0,39.0,30.15,SSE,164,0.0,0.0,37,0.00,,,0.00,Wunderground v.1.15,2013-05-17 23:38:00,
2013-05-17 19:44:00,65.7,40.7,30.15,SSE,164,0.0,0.0,40,0.00,,,0.00,Wunderground v.1.15,2013-05-17 23:44:00,
2013-05-17 19:50:00,65.3,39.7,30.15,SSE,164,0.0,0.0,39,0.00,,,0.00,Wunderground v.1.15,2013-05-17 23:50:00,
2013-05-17 19:56:00,64.9,40.6,30.16,SSE,164,0.0,0.0,41,0.00,,,0.00,Wunderground v.1.15,2013-05-17 23:56:00,
2013-05-17 20:02:00,64.4,41.4,30.16,SSE,164,0.0,0.0,43,0.00,,,0.00,Wunderground v.1.15,2013-05-18 00:02:00,
2013-05-17 20:08:00,63.7,42.5,30.17,SSE,164,0.0,0.0,46,0.00,,,0.00,Wunderground v.1.15,2013-05-18 00:08:00,
2013-05-17 20:14:00,63.0,43.0,30.18,SSE,164,0.0,0.0,48,0.00,,,0.00,Wunderground v.1.15,2013-05-18 00:14:00,
2013-05-17 20:20:00,62.3,43.4,30.18,SSE,164,0.0,0.0,50,0.00,,,0.00,Wunderground v.1.15,2013-05-18 00:20:00,
2013-05-17 20:26:00,61.5,43.7,30.18,SSE,165,0.0,0.0,52,0.00,,,0.00,Wunderground v.1.15,2013-05-18 00:26:00,
2013-05-17 20:32:00,60.9,44.1,30.18,SSE,165,0.0,0.0,54,0.00,,,0.00,Wunderground v.1.15,2013-05-18 00:32:00,
2013-05-17 20:38:00,60.4,44.6,30.19,SSE,165,0.0,0.0,56,0.00,,,0.00,Wunderground v.1.15,2013-05-18 00:38:00,
2013-05-17 20:44:00,59.8,44.1,30.19,SSE,165,0.0,0.0,56,0.00,,,0.00,Wunderground v.1.15,2013-05-18 00:44:00,
2013-05-17 20:50:00,59.3,44.5,30.19,SSE,165,0.0,0.0,58,0.00,,,0.00,Wunderground v.1.15,2013-05-18 00:50:00,
2013-05-17 20:56:00,59.0,44.2,30.20,SSE,165,0.0,0.0,58,0.00,,,0.00,Wunderground v.1.15,2013-05-18 00:56:00,
2013-05-17 21:02:00,59.0,44.2,30.20,SSE,165,0.0,0.0,58,0.00,,,0.00,Wunderground v.1.15,2013-05-18 01:02:00,
2013-05-17 21:08:00,58.5,44.7,30.21,SSE,165,0.0,0.0,60,0.00,,,0.00,Wunderground v.1.15,2013-05-18 01:08:00,
2013-05-17 21:14:00,58.0,44.6,30.21,SSE,165,0.0,0.0,61,0.00,,,0.00,Wunderground v.1.15,2013-05-18 01:14:00,
2013-05-17 21:20:00,57.5,44.1,30.21,SSE,165,0.0,0.0,61,0.00,,,0.00,Wunderground v.1.15,2013-05-18 01:20:00,
2013-05-17 21:26:00,57.1,44.2,30.21,SSE,165,0.0,0.0,62,0.00,,,0.00,Wunderground v.1.15,2013-05-18 01:26:00,
2013-05-17 21:32:00,56.8,44.7,30.22,SSE,165,0.0,0.0,64,0.00,,,0.00,Wunderground v.1.15,2013-05-18 01:32:00,
2013-05-17 21:38:00,56.4,44.0,30.22,SSE,165,0.0,0.0,63,0.00,,,0.00,Wunderground v.1.15,2013-05-18 01:38:00,
2013-05-17 21:44:00,56.1,44.5,30.22,SSE,165,0.0,0.0,65,0.00,,,0.00,Wunderground v.1.15,2013-05-18 01:44:00,
2013-05-17 21:50:00,55.8,44.2,30.22,SSE,165,0.0,0.0,65,0.00,,,0.00,Wunderground v.1.15,2013-05-18 01:50:00,
2013-05-17 21:56:00,55.5,43.9,30.22,SSE,165,0.0,0.0,65,0.00,,,0.00,Wunderground v.1.15,2013-05-18 01:56:00,
2013-05-17 22:02:00,55.4,44.2,30.23,SSE,165,0.0,0.0,66,0.00,,,0.00,Wunderground v.1.15,2013-05-18 02:02:00,
2013-05-17 22:08:00,55.1,44.3,30.23,SSE,165,0.0,0.0,67,0.00,,,0.00,Wunderground v.1.15,2013-05-18 02:08:00,
2013-05-17 22:14:00,54.7,44.3,30.23,SSE,165,0.0,0.0,68,0.00,,,0.00,Wunderground v.1.15,2013-05-18 02:14:00,
2013-05-17 22:20:00,54.3,44.3,30.23,SSE,165,0.0,0.0,69,0.00,,,0.00,Wunderground v.1.15,2013-05-18 02:20:00,
2013-05-17 22:26:00,54.0,44.4,30.23,SSE,165,0.0,0.0,70,0.00,,,0.00,Wunderground v.1.15,2013-05-18 02:26:00,
2013-05-17 22:32:00,53.8,44.2,30.24,SSE,165,0.0,0.0,70,0.00,,,0.00,Wunderground v.1.15,2013-05-18 02:32:00,
2013-05-17 22:38:00,53.6,44.4,30.23,SSE,165,0.0,0.0,71,0.00,,,0.00,Wunderground v.1.15,2013-05-18 02:38:00,
2013-05-17 22:44:00,53.4,44.6,30.23,SSE,165,0.0,0.0,72,0.00,,,0.00,Wunderground v.1.15,2013-05-18 02:44:00,
2013-05-17 22:50:00,53.1,44.3,30.24,SSE,165,0.0,0.0,72,0.00,,,0.00,Wunderground v.1.15,2013-05-18 02:50:00,
2013-05-17 22:56:00,52.7,44.6,30.24,SSE,165,0.0,0.0,74,0.00,,,0.00,Wunderground v.1.15,2013-05-18 02:56:00,
2013-05-17 23:02:00,52.3,44.6,30.24,SSE,165,0.0,0.0,75,0.00,,,0.00,Wunderground v.1.15,2013-05-18 03:02:00,
2013-05-17 23:08:00,52.1,44.4,30.24,SSE,165,0.0,0.0,75,0.00,,,0.00,Wunderground v.1.15,2013-05-18 03:08:00,
2013-05-17 23:14:00,52.0,44.3,30.24,SSE,165,0.0,0.0,75,0.00,,,0.00,Wunderground v.1.15,2013-05-18 03:14:00,
2013-05-17 23:20:00,51.9,44.6,30.24,SSE,165,0.0,0.0,76,0.00,,,0.00,Wunderground v.1.15,2013-05-18 03:20:00,
2013-05-17 23:26:00,51.7,44.4,30.24,SSE,165,0.0,0.0,76,0.00,,,0.00,Wunderground v.1.15,2013-05-18 03:26:00,
2013-05-17 23:32:00,51.5,44.5,30.24,SSE,165,0.0,0.0,77,0.00,,,0.00,Wunderground v.1.15,2013-05-18 03:32:00,
2013-05-17 23:38:00,51.4,44.4,30.24,SSE,165,0.0,0.0,77,0.00,,,0.00,Wunderground v.1.15,2013-05-18 03:38:00,
2013-05-17 23:44:00,51.3,44.3,30.24,SSE,165,0.0,0.0,77,0.00,,,0.00,Wunderground v.1.15,2013-05-18 03:44:00,
2013-05-17 23:50:00,51.1,44.5,30.25,SSE,165,0.0,0.0,78,0.00,,,0.00,Wunderground v.1.15,2013-05-18 03:50:00,
2013-05-17 23:56:00,51.0,44.4,30.25,SSE,165,0.0,0.0,78,0.00,,,0.00,Wunderground v.1.15,2013-05-18 03:56:00,